Torna al catalogo

STARLINK-37860

AttivoComunicazioniSSO
NORAD 69554·PAYLOAD·🇺🇸 United States

Lanciato Jun 15, 2026 da Vandenberg Space Force Base

Loading…

Prossimi Passaggi (prossime 24 ore)

TLE

AggiornatoSource: CelesTrak SupGP

Epoca: Sep 14, 2026, 23:31 UTC

1 69554C 26135J   26257.98034722  .00064251  00000+0  19947-2 0  2579
2 69554  97.2834 285.7308 0001623  88.7512 254.3960 15.33402801    17

Traccia STARLINK-37860 in tempo reale con AllMySat

Download on the App Store